Find Starlink 6110

NORAD ID: 56907 Int'l Des: 2023-083 Owner: SPXS Country: US Constellation: starlink operational
LEOCIRCULAR

Live Position

Loading 3D Globe...

About Starlink 6110

Description loading...

Upcoming Passes

Passes for default location (London). Set your location on the main map for personalized predictions.

Altitude History

Loading altitude history...

Two-Line Element Set

1 56907U 23083AH 26106.25002315 .00063370 00000-0 22980-2 0 9998
2 56907 43.0021 218.2366 0001801 249.7071 206.7083 15.27502827 5715
Epoch: Apr 16, 2026 • Age: 6 hours

Current Status

Altitude 483.0 km
Velocity 7.63 km/s
Sub-Earth Point 14.39°N, 151.19°W
Launch Date Jun 12, 2023
Age 2.8 years
Type internet

Technical Details

Classification Payload
Mass 305.00 kg
Dry Mass 290.00 kg
Total Mass 305.00 kg
Length 0.20 m
Diameter 2.80 m
Span 9.00 m
Shape Box + pan
Manufacturer SPXS
Bus Type Starlink
Phase Status In Orbit
Owner/State SPXS/US

Most Searched